TimeCDT,TemperatureF,Dew PointF,Humidity,Sea Level PressureIn,VisibilityMPH,Wind Direction,Wind SpeedMPH,Gust SpeedMPH,PrecipitationIn,Events,Conditions,WindDirDegrees,DateUTC
12:53 AM,46.0,32.0,58,30.13,10.0,Calm,Calm,-,N/A,,Clear,0,2012-10-30 05:53:00
1:53 AM,42.1,35.1,76,30.13,10.0,Calm,Calm,-,N/A,,Clear,0,2012-10-30 06:53:00
2:53 AM,39.9,35.1,83,30.12,10.0,Calm,Calm,-,N/A,,Clear,0,2012-10-30 07:53:00
3:53 AM,37.9,35.1,89,30.12,10.0,Calm,Calm,-,N/A,,Clear,0,2012-10-30 08:53:00
4:53 AM,37.9,35.1,89,30.12,10.0,Calm,Calm,-,N/A,,Clear,0,2012-10-30 09:53:00
5:53 AM,36.0,34.0,93,30.12,10.0,Calm,Calm,-,N/A,,Clear,0,2012-10-30 10:53:00
6:53 AM,36.0,34.0,93,30.12,10.0,Calm,Calm,-,N/A,,Clear,0,2012-10-30 11:53:00
7:53 AM,37.9,35.1,89,30.12,10.0,Calm,Calm,-,N/A,,Clear,0,2012-10-30 12:53:00
8:53 AM,48.9,39.9,71,30.12,10.0,Calm,Calm,-,N/A,,Clear,0,2012-10-30 13:53:00
9:53 AM,55.9,36.0,47,30.13,10.0,Calm,Calm,-,N/A,,Clear,0,2012-10-30 14:53:00
10:53 AM,61.0,32.0,34,30.13,10.0,WNW,4.6,-,N/A,,Clear,300,2012-10-30 15:53:00
11:53 AM,64.0,34.0,33,30.12,10.0,West,8.1,-,N/A,,Clear,280,2012-10-30 16:53:00
12:53 PM,64.9,35.1,33,30.09,10.0,WSW,9.2,-,N/A,,Clear,250,2012-10-30 17:53:00
1:53 PM,66.9,32.0,27,30.06,10.0,WNW,5.8,-,N/A,,Clear,290,2012-10-30 18:53:00
2:53 PM,68.0,30.9,25,30.03,10.0,WNW,9.2,17.3,N/A,,Clear,300,2012-10-30 19:53:00
3:53 PM,69.1,34.0,27,30.02,10.0,WNW,9.2,-,N/A,,Clear,290,2012-10-30 20:53:00
4:53 PM,68.0,33.1,27,30.01,10.0,West,5.8,-,N/A,,Clear,280,2012-10-30 21:53:00
5:53 PM,64.0,37.0,37,30.01,10.0,WNW,3.5,-,N/A,,Clear,290,2012-10-30 22:53:00
6:53 PM,55.4,42.8,63,30.01,10.0,Calm,Calm,-,N/A,,Clear,0,2012-10-30 23:53:00
7:53 PM,51.1,44.1,77,30.04,10.0,Calm,Calm,-,N/A,,Clear,0,2012-10-31 00:53:00
8:53 PM,50.0,43.0,77,30.04,10.0,Calm,Calm,-,N/A,,Clear,0,2012-10-31 01:53:00
9:53 PM,48.0,43.0,83,30.05,10.0,Calm,Calm,-,N/A,,Clear,0,2012-10-31 02:53:00
10:53 PM,46.9,44.1,90,30.05,10.0,Calm,Calm,-,N/A,,Clear,0,2012-10-31 03:53:00
11:53 PM,46.9,43.0,86,30.04,10.0,Calm,Calm,-,N/A,,Clear,0,2012-10-31 04:53:00